Misión y Visión

La misión es proporcionar información fiable a la navegación aérea, contribuyendo a la seguridad, regularidad y eficiencia de la Navegación Aérea Internacional

La visión es contribuir sustancialmente al desarrollo de conocimientos y a la utilización de la meteorología aeronáutica a nivel nacional e internacional, mediante la innovación y la coparticipación con sectores sociales y productivos de la sociedad.

 
  Inicio
  Metar
  Taf
  Wintemp
  SIGMET
  Avisos
  Pronósticos
  Carpeta Meteorologica
  Imágenes Satelitales
  Climatología Aeronáutica
   
  ¿Quienes Somos?
  Contacto
  Eventos
  Publicaciones
  Politica de la Calidad
Taf

DIRECCIONES PARA INFORMES NACIONALES E INTERNACIONALES
(Metar /Speci - TAF)

http://adds.aviationweather.gov/tafs/index.php

http://www.ogimet.com/metars.phtml

PRONÓSTICOS DE AERÓDROMO

Cuando sea necesario, el encabezamiento abreviado puede incluir un cuarto grupo consistente en tres letras para identificar los boletines demorados (RRA), corregidos (CCA) o enmendados (AAA). Los boletines adicionales demorados, corregidos o enmendados deben identificarse con las letras RRB, RRC, etc.; CCB, CCC,etc.;AAB, AAC,etc.

 

DÍA 23/10/2014

 

TAF 

MPTO

TAF MPTO 231600Z 2318/2418 15006KT 9999 SCT018 SCT090
    PROB30 TEMPO 2319/2322 18005KT 7000 -TSRA SCT015CB SCT090
    BECMG 2323/2402 00000KT 9999 NSW FEW018CB SCT100
=

 

       TAF MPPA

TAF MPPA 231600Z 2318/2418 15006KT 9999 SCT018 SCT090
    PROB40 TEMPO 2319/2322 19006KT 6000 -TSRA SCT015CB BKN090
    BECMG 2319/2302 35005KT 9999 NSW FEW017CB SCT090=

TAF MPMG

TAF MPMG 231600Z 2318/2406 16006KT 9999 SCT020 SCT090
    PROB30 TEMPO 2319/2322 18008KT 7000 -TSRA SCT016CB BKN090
    BECMG 2323/2402 00000KT 9999 NSW FEW016CB SCT090
=

TAF MPDA 

 

TAF MPDA 231600Z 2318/2406 24006KT 9999 SCT020 BKN090
    PROB30 TEMPO 2320/2323 7000 -TSRA SCT016CB BKN080
    BECMG 2400/2403 00000KT 9999 NSW FEW015CB BKN100=

 
 















  Noticias AAC
  Directorio
  Contáctenos
  Historia
  Quejas y Sugerencias
  Etica y Transparencia

  Gestión SSP/SMS
  Seguridad Aérea
  Navegación Aérea
  Transporte Aéreo

  Tramites
  Áeronaves de Alquiler

  Meteorología
  I.S.F.P.A
  Notam
  Peligro Aviario
  AVSEC
  UPIA
  Permisos
 




DECLARACIÓN DE PRIVACIDAD